Skip Page Navigation
NASA JPL Caltech
NASA Logo - Jet Propulsion Laboratory + View the NASA Portal
+ Center for Near-Earth Object Studies
JPL Home Earth Solar System Stars & Galaxies Technology
JPL Solar System Dynamics
BODIES ORBITS EPHEMERIDES TOOLS PHYSICAL DATA DISCOVERY FAQ SITE MAP
JPL Small-Body Database Browser
Search: [ help ]  
357715 (2005 QO62)
Classification: Main-belt Asteroid          SPK-ID: 2357715
Ephemeris | Orbit Diagram | Orbital Elements | Mission Design | Physical Parameters | Discovery Circumstances | Close-Approach Data ]

[ show orbit diagram ]
Orbital Elements at Epoch 2459000.5 (2020-May-31.0) TDB
Reference: JPL 9 (heliocentric ecliptic J2000)
 Element Value Uncertainty (1-sigma)   Units 
e .1564467015905034 8.5393e-08  
a 2.86596998106435 4.515e-08 au
q 2.417598430669436 2.3269e-07 au
i 4.211618207511632 1.4177e-05 deg
node 3.903341303217571 9.1222e-05 deg
peri 308.547977478795 0.00010461 deg
M 35.98981064190548 5.6501e-05 deg
tp 2458823.332954207704
(2019-Dec-05.83295421)
0.00027528 TDB
period 1772.172049467877
4.85
4.1878e-05
1.147e-07
d
yr
n .2031405472781809 4.8004e-09 deg/d
Q 3.314341531459265 5.2214e-08 au
  Orbit Determination Parameters
   # obs. used (total)      110  
   data-arc span      5076 days (13.90 yr)  
   first obs. used      2004-04-24  
   last obs. used      2018-03-18  
   planetary ephem.      DE431  
   SB-pert. ephem.      SB431-N16  
   condition code      0  
   norm. resid. RMS      .56304  
   source      ORB  
   producer      Otto Matic  
   solution date      2019-Jul-14 04:33:28  

Additional Information
 Earth MOID = 1.40643 au 
 Jupiter MOID = 1.97626 au 
 T_jup = 3.278 
[ show covariance matrix ]

Ephemeris | Orbit Diagram | Orbital Elements | Mission Design | Physical Parameters | Discovery Circumstances | Close-Approach Data ]

Physical Parameter Table
Parameter Symbol Value Units Sigma Reference Notes
absolute magnitude H 16.7   n/a MPO440602  

357715 (2005 QO62)          Discovered 2005-Aug-26 by NEAT at Palomar
Reference: 20130327/Numbers.arcLast Updated: 2013-03-29

[ hide close-approach data ]
Close-Approach Data   ...sorted by Date/Time (TDB)
Date/Time (TDB) Time Uncertainty
(days_HH:MM)
Body Nominal Distance (au) Minimum Distance (au) Maximum Distance (au) V-relative (km/s) V-infinity (km/s) JD (TDB) Time Uncertainty (minutes) Semi-major axis (km) Semi-minor axis (km) range-LOV angle (deg) N-sigma BP Orbit Ref. Reference Modified
1977-Dec-26 04:35 00:03 Jupiter 1.9816362188676 1.98163513800906 1.98163729972591 2.49793437516485 2.3205181074481 2443503.690820424 2.89791560295681 119.64433375052 13.3592475230506 -78.5759530622561 1036589.69892152 T 9 CATAB v2.0e-lin.ifort 2019-Jul-14 04:33:29 2019-Jul-14 04:33
2002-Oct-06 14:56 00:01 Jupiter 1.97940696166464 1.97940614153323 1.97940778179616 2.34087329035055 2.15031465789524 2452554.122159405 1.16996748088959 138.812829294149 13.7490377999907 -84.4398943143624 1484278.11629832 T 9 CATAB v2.0e-lin.ifort 2019-Jul-14 04:33:29 2019-Jul-14 04:33
2084-Dec-03 08:40 00:05 Jupiter 1.98106036401238 1.98105945963743 1.98106126838756 2.46100370180902 2.28066193690174 2482562.861284412 4.71146805716299 129.844067299345 14.5622804183533 -79.3766111798377 1277400.49126582 T 9 CATAB v2.0e-lin.ifort 2019-Jul-14 04:33:29 2019-Jul-14 04:33
2109-Sep-13 09:58 00:06 Jupiter 1.98754228643285 1.98754134591981 1.98754322694702 2.38208618478498 2.19590596899569 2491611.914951743 6.39971710497283 159.537289173944 16.2164637703875 -84.3255942120898 1455147.43572542 T 9 CATAB v2.0e-lin.ifort 2019-Jul-14 04:33:29 2019-Jul-14 04:33
2191-Nov-13 03:01 00:12 Jupiter 1.97768564984026 1.97768450185596 1.97768679782377 2.4303285555982 2.2472021192214 2521622.625769150 12.2227127571643 136.744290687005 16.9035749459029 -80.1308377425644 783946.44104231 T 9 CATAB v2.0e-lin.ifort 2019-Jul-14 04:33:29 2019-Jul-14 04:33
Ephemeris | Orbit Diagram | Orbital Elements | Mission Design | Physical Parameters | Discovery Circumstances | Close-Approach Data ]
ABOUT SSD CREDITS/AWARDS PRIVACY/COPYRIGHT GLOSSARY LINKS
FirstGov 2020-Oct-01 15:46 UT
(server date/time)  
NASA Home Page
Site Manager:   Ryan S. Park
Webmaster  Alan B. Chamberlin